Wind_Speed
15 15 15 15 15 15 15 16 17 17 16 16 16 18 22 27 32 36 37 37 37 36 35 34 31 29 28 28 26 24 24 24 24 23 21 21 20 20 20 20 20 19 19 18
13 14 14 15 16 17 17 17 16 16 15 14 14 15 20 25 30 33 35 36 36 36 35 34 32 31 29 29 29 26 25 26 25 25 23 23 22 20 20 19 18 18 19 19
11 13 16 17 17 17 17 17 17 16 16 16 15 17 20 23 27 29 31 33 34 34 34 33 31 31 32 31 28 27 25 25 26 26 24 23 22 21 20 20 19 20 20 20
13 14 16 17 17 17 18 17 16 17 17 20 19 19 22 23 25 27 29 30 31 31 32 32 32 32 33 32 30 29 27 26 26 27 26 25 24 22 20 20 21 22 23 23
13 15 17 17 16 18 17 17 18 18 18 20 21 21 22 24 24 25 27 28 28 29 30 31 31 32 32 32 32 29 28 27 28 27 26 26 25 24 21 20 22 23 24 24
13 14 17 17 17 18 18 18 20 20 20 20 19 22 23 22 23 23 24 26 27 28 30 32 32 34 33 31 32 31 28 25 25 26 25 24 23 21 20 20 22 23 23 23
12 12 14 16 17 18 19 20 20 21 21 20 19 22 23 22 23 23 24 25 27 28 28 30 31 32 32 32 30 29 26 24 24 24 24 23 22 21 21 21 22 23 23 24
12 10 12 14 16 19 19 21 21 20 20 19 22 24 25 24 24 23 22 24 27 27 28 28 28 29 30 30 28 28 27 24 23 24 24 24 24 24 24 24 24 25 26 27
12 9 10 12 14 18 20 20 20 20 19 18 21 23 25 26 26 24 23 23 24 26 26 26 27 28 29 29 28 27 26 26 25 25 25 25 26 25 26 27 27 28 29 29
11 8 8 11 14 18 19 19 19 19 19 19 20 21 22 24 25 26 25 25 24 25 26 27 26 27 28 28 28 27 26 26 26 25 25 25 26 27 28 29 30 31 31 31
9 7 6 10 12 16 17 19 19 20 19 19 20 21 22 23 23 24 25 25 26 26 25 25 25 26 26 26 26 25 25 26 26 26 27 27 28 29 30 31 32 33 34 35
7 6 5 9 12 15 17 17 18 19 18 18 19 20 19 20 20 19 19 22 25 26 25 24 24 24 25 25 25 25 26 26 27 27 28 29 30 30 31 33 34 35 37 38
5 3 3 7 12 15 16 16 15 15 16 16 18 17 17 18 16 15 15 17 20 21 22 23 23 23 23 24 25 26 27 28 28 29 30 31 32 34 35 36 37 38 39 40
4 2 2 5 10 13 15 14 14 15 16 16 16 16 17 16 15 13 12 13 16 17 18 20 22 23 24 25 26 27 28 29 30 31 33 34 35 36 37 38 38 39 39 39
3 2 2 5 9 12 12 12 13 14 16 17 18 17 16 16 13 13 12 13 14 15 17 19 21 23 25 26 27 28 29 30 32 33 34 35 36 36 37 37 37 37 37 38
1 1 1 5 7 7 8 7 8 11 14 15 16 16 16 15 13 13 12 13 15 17 19 21 22 24 25 26 27 28 29 30 31 32 33 34 34 34 34 35 35 36 36 36
1 1 1 5 4 3 4 4 6 8 10 13 14 15 16 16 15 14 14 15 15 16 18 20 22 23 24 25 26 27 28 29 30 30 31 31 31 31 31 31 32 32 32 32
3 3 4 2 0 1 2 4 6 8 10 10 12 13 14 15 14 14 14 15 15 16 18 20 22 22 23 24 25 26 27 27 27 27 27 28 28 28 28 28 28 28 28 29
4 3 3 3 3 3 4 5 6 8 9 10 10 12 13 13 13 13 13 14 14 15 17 19 21 22 23 24 23 23 23 24 24 24 25 25 25 25 25 26 26 27 27 28
3 3 4 5 5 5 6 7 7 8 9 10 10 11 12 12 12 12 12 12 13 14 16 17 19 20 20 20 21 20 21 21 22 22 22 22 23 24 25 25 25 26 27 27
4 4 5 6 6 7 8 9 9 10 11 10 10 10 11 10 10 10 10 10 11 12 14 15 16 17 18 18 19 19 19 19 20 20 20 21 22 22 23 23 24 24 25 24
6 6 7 7 7 8 9 10 11 11 11 11 10 10 10 9 9 9 8 8 9 9 10 11 12 13 13 14 15 16 16 17 17 18 19 19 20 20 21 21 21 21 20 20
6 6 7 8 8 9 10 10 11 11 11 11 10 10 9 9 8 8 7 7 7 7 7 8 8 10 11 12 13 14 15 16 17 18 18 18 18 18 18 18 18 17 17 16
6 7 8 9 9 10 11 11 11 11 11 11 10 10 9 9 9 8 7 7 6 6 7 7 8 9 10 12 12 14 15 16 17 17 18 17 17 16 16 16 15 15 15 14
7 7 9 10 11 11 12 12 12 12 12 12 12 11 10 10 9 9 8 8 7 7 8 8 9 10 11 12 13 14 15 16 16 16 15 15 14 14 14 14 13 13 12 12
7 8 9 10 11 12 13 13 14 14 13 13 13 12 12 11 10 9 9 9 9 9 9 9 10 11 11 12 13 14 14 15 15 14 14 13 13 13 12 12 11 11 11 11
Wind_Direction
269 258 251 243 236 228 219 217 212 201 200 219 218 216 208 210 215 220 226 231 237 244 248 252 255 257 250 248 249 250 247 247 244 241 241 234 234 232 234 239 244 250 251 256
264 246 235 225 220 218 213 213 205 195 197 209 212 211 206 206 211 217 223 228 234 239 243 246 249 252 254 256 256 251 248 246 241 235 237 236 236 235 237 238 247 254 260 265
257 237 226 220 213 213 211 213 202 196 195 193 206 215 213 211 214 218 223 229 233 236 241 245 250 253 253 254 255 254 252 240 239 237 239 239 239 240 242 247 254 257 262 266
264 241 227 221 218 218 215 211 208 210 203 192 201 217 219 217 219 220 225 230 233 237 241 246 249 251 254 256 257 259 250 245 243 241 239 242 242 244 250 255 261 262 264 270
278 251 237 225 219 220 215 212 215 218 211 202 205 218 224 222 226 227 229 232 236 241 245 247 249 252 252 256 261 262 257 248 246 244 240 241 246 250 253 260 267 269 270 273
285 258 246 235 222 221 218 214 214 217 216 210 209 220 227 228 230 233 236 236 239 243 244 247 250 253 254 259 263 267 263 257 250 246 247 250 251 258 265 266 271 275 277 281
289 265 248 238 229 219 217 214 216 218 221 222 221 228 231 234 234 236 239 242 246 246 246 248 250 252 255 260 265 270 269 262 256 256 262 264 263 270 276 274 281 284 285 289
291 270 252 242 229 217 213 213 215 218 220 225 228 235 237 239 242 244 246 247 246 249 249 252 253 254 257 262 266 268 270 270 269 267 268 272 275 280 284 286 288 290 291 293
302 281 249 237 220 213 209 211 215 221 222 229 230 233 240 241 247 253 255 254 250 248 252 254 253 253 256 259 263 265 267 270 272 272 274 276 278 280 283 287 288 288 290 292
305 290 251 227 216 212 210 208 214 221 226 234 237 238 244 249 252 255 258 257 253 249 250 251 252 252 253 257 262 262 264 269 271 273 276 277 277 279 281 283 285 286 288 288
309 301 251 221 215 211 210 211 217 221 227 236 245 251 251 258 258 258 257 254 251 248 247 247 249 252 255 257 260 264 265 268 270 272 274 275 276 278 279 280 283 285 287 288
311 297 243 218 213 211 212 216 220 222 227 240 252 259 261 268 272 266 261 251 248 245 245 248 251 253 255 258 260 262 264 266 267 269 271 273 275 277 279 281 283 285 286 288
326 314 220 211 211 212 214 218 226 230 240 250 258 267 277 284 285 278 266 253 247 248 247 250 253 256 258 259 261 263 264 266 267 269 271 273 275 277 279 281 283 285 286 288
331 324 263 217 211 212 214 221 232 240 249 258 265 276 284 291 289 280 272 261 250 248 252 256 257 257 259 261 263 263 264 266 267 269 272 274 277 279 281 282 284 286 288 289
330 312 250 218 209 210 217 226 233 245 254 263 272 279 287 290 293 294 281 268 264 262 261 261 262 261 261 261 262 263 266 268 269 271 274 276 278 280 281 283 285 286 288 289
352 9 217 208 201 205 221 231 239 254 261 266 271 278 283 288 287 288 284 278 273 266 262 262 264 264 263 264 265 267 270 272 274 275 276 278 279 280 282 285 286 287 288 289
106 113 154 164 171 207 224 247 257 269 274 273 274 279 284 292 287 285 283 277 272 268 264 263 265 264 264 266 269 273 275 276 277 278 278 279 281 283 285 286 287 287 287 287
94 102 104 113 177 241 280 287 287 294 294 288 285 286 290 292 291 289 285 278 273 269 266 265 263 262 266 270 273 275 275 276 277 278 280 281 282 284 286 286 286 286 287 288
73 66 61 29 8 350 340 327 315 308 312 307 304 302 300 297 294 292 289 283 275 269 266 265 266 269 270 272 275 276 276 278 279 280 282 283 283 284 284 285 285 286 287 289
76 54 42 29 15 5 352 342 334 324 321 318 313 311 311 308 301 295 290 282 275 272 270 270 270 271 273 274 275 276 277 279 280 281 282 282 282 283 284 285 286 287 288 289
68 53 41 27 15 6 356 350 344 340 337 332 325 322 322 318 310 303 295 288 282 278 275 273 271 272 274 276 277 277 278 279 280 281 282 284 286 286 287 287 289 289 290 290
68 53 40 29 20 9 1 357 355 350 346 341 335 333 331 328 323 316 308 298 290 285 282 279 276 277 277 277 278 280 281 282 282 284 286 288 289 290 291 292 293 294 293 293
72 57 43 33 25 16 13 8 3 359 357 355 350 347 345 344 341 335 328 318 308 299 295 293 289 287 285 284 283 283 283 283 284 285 287 290 292 293 294 295 295 295 295 296
80 64 51 40 32 27 22 18 13 8 6 4 3 2 -0 358 356 354 349 342 331 320 315 307 300 296 293 291 288 286 287 288 288 288 288 290 291 292 293 293 294 296 296 297
85 67 54 44 36 32 29 26 23 18 16 15 14 12 11 9 6 2 357 351 342 332 322 315 309 305 301 298 295 294 293 293 291 289 288 290 291 291 291 292 295 297 297 298
88 71 55 45 38 34 32 29 26 25 24 23 23 22 20 17 13 9 2 355 347 337 331 326 321 316 311 306 303 301 299 296 293 290 288 289 290 289 291 294 297 298 299 300
Height
5782 5783 5783 5784 5785 5786 5787 5789 5791 5794 5796 5797 5798 5801 5805 5808 5812 5816 5820 5824 5827 5829 5832 5834 5836 5837 5837 5838 5841 5842 5844 5844 5846 5848 5849 5850 5850 5851 5852 5852 5851 5852 5852 5853
5779 5779 5779 5779 5780 5781 5783 5784 5787 5790 5792 5793 5796 5798 5800 5802 5806 5810 5815 5819 5822 5825 5827 5829 5831 5832 5834 5834 5835 5836 5837 5836 5838 5840 5842 5843 5844 5845 5846 5846 5846 5846 5847 5847
5775 5775 5774 5775 5776 5778 5780 5782 5784 5786 5787 5790 5792 5794 5796 5799 5802 5806 5810 5813 5816 5819 5822 5824 5826 5828 5828 5828 5828 5828 5828 5829 5831 5834 5835 5837 5838 5839 5840 5841 5841 5841 5841 5842
5771 5770 5770 5771 5772 5774 5776 5779 5781 5783 5784 5786 5789 5790 5792 5795 5799 5802 5805 5808 5811 5814 5817 5819 5821 5822 5822 5822 5823 5823 5821 5822 5823 5825 5827 5829 5831 5832 5833 5835 5836 5836 5836 5836
5768 5767 5766 5767 5769 5771 5773 5775 5777 5779 5780 5783 5786 5787 5790 5792 5795 5798 5801 5804 5806 5809 5811 5814 5816 5817 5816 5817 5818 5817 5816 5815 5816 5819 5821 5822 5824 5826 5827 5829 5829 5830 5830 5830
5764 5763 5762 5763 5765 5767 5769 5772 5774 5776 5778 5781 5783 5785 5786 5789 5791 5794 5796 5799 5801 5804 5805 5807 5810 5811 5811 5811 5813 5813 5811 5809 5810 5812 5814 5816 5817 5819 5820 5821 5823 5823 5823 5823
5761 5760 5759 5760 5761 5764 5766 5769 5771 5774 5776 5779 5781 5781 5783 5784 5786 5789 5791 5794 5796 5798 5800 5801 5803 5805 5805 5806 5807 5808 5807 5807 5807 5808 5809 5810 5811 5813 5814 5814 5815 5815 5816 5816
5756 5757 5756 5756 5757 5760 5762 5765 5769 5771 5773 5776 5777 5777 5779 5781 5782 5784 5786 5788 5791 5793 5795 5796 5797 5798 5800 5801 5802 5803 5803 5804 5804 5804 5805 5806 5807 5807 5808 5808 5809 5810 5810 5809
5753 5753 5753 5753 5754 5756 5759 5762 5765 5768 5770 5771 5772 5774 5775 5777 5778 5780 5781 5783 5785 5787 5789 5790 5791 5793 5794 5796 5797 5798 5798 5799 5800 5800 5801 5802 5802 5802 5802 5803 5803 5803 5803 5802
5751 5750 5750 5750 5752 5754 5757 5760 5762 5765 5767 5768 5770 5771 5772 5773 5774 5775 5776 5777 5779 5782 5784 5786 5787 5788 5789 5790 5791 5792 5793 5794 5795 5795 5796 5796 5797 5797 5797 5797 5797 5796 5795 5795
5749 5749 5749 5749 5750 5752 5756 5758 5759 5761 5763 5765 5766 5769 5768 5768 5768 5768 5769 5771 5773 5776 5778 5780 5782 5783 5783 5784 5785 5786 5787 5788 5789 5789 5790 5790 5790 5790 5790 5790 5790 5789 5787 5786
5748 5747 5747 5748 5749 5750 5753 5755 5757 5759 5761 5762 5763 5766 5763 5763 5763 5762 5763 5764 5766 5769 5772 5774 5776 5777 5778 5779 5780 5780 5781 5782 5783 5783 5783 5783 5783 5783 5782 5782 5781 5780 5778 5776
5747 5747 5746 5747 5749 5750 5751 5753 5755 5757 5759 5759 5760 5763 5760 5759 5759 5758 5758 5760 5761 5763 5766 5768 5770 5771 5772 5773 5774 5774 5775 5775 5776 5776 5776 5776 5775 5775 5774 5773 5772 5771 5769 5767
5746 5746 5746 5747 5747 5747 5749 5751 5753 5755 5755 5756 5757 5757 5757 5756 5755 5755 5756 5757 5758 5759 5761 5763 5764 5765 5766 5767 5767 5768 5768 5768 5768 5768 5768 5767 5767 5766 5765 5764 5762 5761 5759 5756
5746 5745 5744 5744 5744 5746 5748 5749 5751 5752 5753 5753 5754 5754 5754 5753 5752 5753 5753 5754 5754 5755 5757 5758 5759 5759 5759 5760 5760 5760 5760 5760 5760 5760 5760 5759 5758 5757 5756 5754 5753 5751 5749 5746
5745 5744 5743 5743 5744 5745 5747 5747 5749 5750 5750 5750 5750 5750 5750 5749 5749 5749 5749 5750 5750 5751 5751 5752 5752 5752 5752 5752 5752 5752 5752 5752 5752 5751 5751 5750 5749 5748 5746 5745 5743 5741 5739 5737
5744 5744 5744 5744 5745 5745 5746 5746 5747 5747 5747 5747 5746 5747 5746 5745 5745 5745 5745 5745 5745 5746 5746 5746 5746 5745 5745 5745 5745 5744 5744 5743 5743 5742 5742 5741 5740 5739 5737 5736 5734 5732 5730 5728
5745 5745 5745 5745 5746 5745 5747 5744 5744 5744 5743 5743 5742 5742 5742 5741 5741 5740 5740 5740 5740 5740 5740 5739 5739 5738 5738 5738 5738 5737 5737 5736 5736 5735 5734 5733 5732 5730 5729 5727 5726 5724 5722 5720
5745 5746 5746 5745 5745 5744 5744 5743 5742 5741 5740 5740 5739 5738 5737 5737 5736 5735 5735 5734 5734 5733 5733 5733 5733 5732 5732 5731 5731 5731 5730 5729 5728 5727 5726 5725 5724 5723 5721 5719 5718 5716 5714 5712
5746 5746 5746 5745 5744 5743 5744 5742 5740 5741 5738 5737 5736 5734 5733 5732 5732 5731 5730 5729 5729 5728 5728 5727 5727 5726 5726 5726 5725 5724 5724 5723 5722 5721 5719 5718 5717 5715 5714 5712 5710 5708 5706 5704
5746 5745 5745 5744 5744 5743 5742 5740 5739 5738 5737 5734 5732 5731 5730 5729 5728 5727 5726 5725 5724 5723 5723 5722 5721 5721 5720 5720 5719 5719 5718 5717 5716 5714 5713 5712 5710 5708 5706 5705 5703 5701 5699 5696
5746 5745 5745 5744 5743 5744 5740 5738 5737 5736 5733 5732 5730 5728 5727 5726 5725 5723 5722 5721 5720 5719 5718 5718 5717 5716 5715 5715 5714 5713 5712 5711 5710 5709 5707 5705 5704 5702 5700 5698 5696 5694 5692 5690
5746 5746 5745 5745 5745 5742 5740 5738 5736 5734 5732 5730 5728 5727 5725 5724 5722 5721 5720 5718 5717 5716 5715 5714 5714 5713 5712 5711 5710 5709 5708 5706 5705 5703 5701 5700 5698 5696 5694 5692 5690 5689 5687 5685
5746 5746 5745 5744 5743 5741 5740 5738 5736 5734 5732 5729 5727 5726 5724 5722 5721 5719 5718 5717 5715 5714 5713 5712 5711 5710 5708 5707 5706 5704 5703 5701 5699 5698 5696 5694 5693 5691 5689 5688 5686 5684 5682 5681
5747 5747 5746 5744 5743 5742 5740 5738 5736 5734 5731 5729 5727 5725 5723 5721 5720 5718 5717 5715 5714 5712 5711 5709 5708 5706 5705 5703 5702 5700 5698 5696 5694 5692 5691 5689 5688 5686 5685 5684 5682 5681 5679 5678
5748 5748 5747 5746 5745 5743 5741 5739 5737 5734 5732 5730 5727 5725 5723 5721 5720 5718 5716 5714 5712 5710 5709 5707 5705 5703 5701 5699 5697 5695 5693 5691 5689 5688 5686 5685 5684 5682 5681 5680 5679 5677 5676 5675